Miscellaneous Local Product
Issued by NWS Hastings, NE

Home | Current Version | Previous Version | Text Only | Print | Product List | Glossary Off
Versions: 1 2 3 4 5 6 7 8 9 10 11 12 13 14 15 16 17 18 19 20 21 22 23 24 25 26 27 28 29 30 31 32 33 34 35 36 37 38 39 40 41 42 43 44 45 46 47 48 49 50

000
AXUS43 KGID 211802
MISGRI

GID CWA HOURLY WEATHER ROUNDUP
NATIONAL WEATHER SERVICE HASTINGS NE
100 PM CDT SUN MAY 21 2017

NOTE: "FAIR" INDICATES FEW OR NO CLOUDS BELOW 12,000 FEET WITH NO
SIGNIFICANT WEATHER AND/OR OBSTRUCTIONS TO VISIBILITY.

...SOUTH CENTRAL NEBRASKA...

CITY           SKY/WX    TMP DP  RH WIND       PRES   REMARKS
GRAND ISLAND   SUNNY     63  42  46 NW7       30.13F
HASTINGS       SUNNY     65  38  36 W14G33    30.15S
KEARNEY        PTSUNNY   64  39  39 W12G20    30.14F
ORD            SUNNY     62  39  42 NW10      30.10F
YORK           SUNNY     59  43  55 W12G17    30.13F
AURORA         SUNNY     61  42  48 W12G22    30.13F
LEXINGTON      SUNNY     64  40  40 NW12G21   30.14F
HOLDREGE       SUNNY     63  38  40 NW9       30.15S
HEBRON         SUNNY     62  43  50 W6        30.15S

...NEBRASKA PANHANDLE...

CITY           SKY/WX    TMP DP  RH WIND       PRES   REMARKS
CHADRON        CLOUDY    59  40  49 NW9       30.13S
ALLIANCE       MOSUNNY   63  39  41 NW10      30.13F
SCOTTSBLUFF    CLOUDY    64  40  41 W10       30.15F
SIDNEY         MOSUNNY   63  37  38 N7        30.18F

...WESTERN AND NORTH CENTRAL NEBRASKA...

CITY           SKY/WX    TMP DP  RH WIND       PRES   REMARKS
VALENTINE      SUNNY     66  32  28 NW13G25   30.09S
AINSWORTH      SUNNY     61  35  37 NW14G20   30.10S
ONEILL         SUNNY     58  39  48 NW18G24   30.10S
BROKEN BOW     SUNNY     63  40  42 W16       30.12S
IMPERIAL       MOSUNNY   64  39  39 N14       30.16F
NORTH PLATTE   SUNNY     66  41  40 W10G21    30.14F
MCCOOK         SUNNY     68  45  43 W15       30.15F

...EASTERN NEBRASKA...

CITY           SKY/WX    TMP DP  RH WIND       PRES   REMARKS
NORFOLK        SUNNY     59  39  47 NW22G32   30.06F
SO SIOUX CITY  CLOUDY    52  42  69 NW24G31   30.05S
TEKAMAH        CLOUDY    54  42  64 W17G28    30.08S
COLUMBUS       SUNNY     61  39  44 W15G24    30.11F
ALBION         SUNNY     61  40  45 NW10G20   30.11R
OMAHA EPPLEY   PTSUNNY   59  41  51 NW18G25   30.08F
OFFUTT AFB     MOSUNNY   59  42  53 W21G26    30.08F
MILLARD        PTSUNNY   58  44  58 W17G23    30.10S
LINCOLN        SUNNY     63  40  42 W16G22    30.13S
NEBRASKA CITY  SUNNY     60  37  42 W21G26    30.12S
BEATRICE       SUNNY     63  45  51 W14       30.14S
FALLS CITY     SUNNY     62  43  49 W17G28    30.12F

...NORTHERN KANSAS...

CITY           SKY/WX    TMP DP  RH WIND       PRES   REMARKS
GOODLAND       MOSUNNY   67  42  40 SW3       30.16F
HILL CITY      SUNNY     71  44  37 W12       30.16F
NORTON         CLEAR     68  43  40 W13G21    30.15S
PHILLIPSBURG   SUNNY     68  39  34 W9G18     30.15F
SMITH CENTER   PTSUNNY   66  39  37 W13       30.15F
HAYS           CLOUDY    68  44  42 W8        30.16F
RUSSELL        CLOUDY    69  44  40 NW10      30.15F
CONCORDIA      SUNNY     66  48  52 W14G20    30.15F
SALINA         SUNNY     71  48  43 NW10      30.16F
TOPEKA         SUNNY     64  45  49 W12       30.15F



USA.gov is the U.S. government's official web portal to all federal, state and local government web resources and services.